Flag for Guatemala Weather past 2 weeks in Guatemala, Guatemala

Now
64 °F

Overcast.


Feels Like: 64 °F
Forecast: 62 / 78 °F
Wind: 9 mph from North

Location: Guatemala Aeropuertola Aurora

Current Time: Jul 28, 2015 at 7:44:11 AM

Latest Report: Jul 28, 2015 at 7:00 AM


Visibility: N/A

Pressure: 30.27 "Hg (25.29 "Hg at 1533m altitude)

Humidity: 88%

Dew point: 61 °F

Location of GuatemalaLocation

Historic Weather in Guatemala — Graph

°F

Guatemala temperature yesterday

Maximum temperature yesterday: 79 °F (at 2:00 PM)
Minimum temperature yesterday: 63 °F (at 5:00 AM)
Average temperature yesterday: 70 °F

Past Weeks' High & Low Weather Summary

 TemperatureHumidityPressure
High81 °F (Jul 23, 2:00 PM)100% (Jul 14, 5:00 AM)30.36 "Hg (Jul 14, 5:00 AM)
Low61 °F (Jul 13, 6:00 AM)42% (Jul 13, 3:00 PM)30.18 "Hg (Jul 13, 4:00 PM)
Average69 °F79%30.28 "Hg
* Reported Jul 13 6:00 AM — Jul 28 6:00 AM, Guatemala, Weather by CustomWeather, © 2015

Note: Actual official high and low records may vary slightly from our data, if they occured in-between our weather recording intervals... More about our weather records

Advertising

Guatemala weather history for previous 24 hours

 ConditionsComfort  
Time TempWeatherWind HumidityBarometerVisibility
6:00 AM
Tue, Jul 28
64 °FBroken clouds.9 mph88%30.27 "HgN/A
5:00 AM64 °FPassing clouds.9 mph94%30.27 "HgN/A
4:00 AM64 °FPassing clouds.14 mph94%30.24 "HgN/A
3:00 AM64 °FPassing clouds.14 mph94%30.24 "HgN/A
2:00 AM64 °FPassing clouds.12 mph94%30.27 "HgN/A
1:00 AM64 °FPassing clouds.14 mph94%30.27 "HgN/A
12:00 AM66 °FPassing clouds.16 mph83%30.27 "HgN/A
11:00 PM
Mon, Jul 27
66 °FPassing clouds.16 mph78%30.30 "HgN/A
10:00 PM68 °FPassing clouds.18 mph78%30.30 "HgN/A
9:00 PM68 °FClear.16 mph78%30.27 "Hg10 mi
8:00 PM68 °FClear.16 mph73%30.27 "Hg10 mi
7:00 PM70 °FPassing clouds.16 mph83%30.27 "HgN/A
6:00 PM73 °FOvercast.14 mph61%30.24 "HgN/A
5:00 PM75 °FMore clouds than sun.16 mph57%30.21 "HgN/A
4:00 PM77 °FMore clouds than sun.18 mph54%30.21 "HgN/A
3:00 PM79 °FMore clouds than sun.21 mph48%30.21 "HgN/A
2:00 PM79 °FBroken clouds.18 mph45%30.24 "HgN/A
1:00 PM77 °FOvercast.16 mph51%30.24 "HgN/A
12:00 PM77 °FOvercast.16 mph51%30.27 "HgN/A
11:00 AM75 °FOvercast.18 mph50%30.27 "HgN/A
10:00 AM73 °FPartly sunny.18 mph53%30.27 "HgN/A
9:00 AM72 °FOvercast.14 mph65%30.27 "HgN/A
8:00 AM68 °FBroken clouds.12 mph78%30.27 "HgN/A
7:00 AM64 °FBroken clouds.12 mph88%30.27 "Hg5 mi
Weather by CustomWeather, © 2015

See weather overviewHow to use our weather pages